DW8004 Weather Reports


time (UTC)temp
C
wind
direction
speed
KPH
gust
KPH
rain 1hr
cm
rain 24hr
cm
rain mn
cm
humidity
%
barometer
mb
20260507181515 10 277 0.0 0.0 0.00 0.97 0.00 54 1007.7
20260507180110 9 232 0.0 0.0 0.00 1.55 0.00 55 1007.6
20260507174639 9 308 0.0 0.0 0.00 1.55 0.00 54 1007.7
20260507173101 8 246 0.0 0.0 0.00 1.55 0.00 54 1007.9
20260507171627 9 242 0.0 0.0 0.00 1.55 0.00 55 1007.8
20260507170054 8 208 0.0 0.0 0.00 1.80 0.00 53 1007.9
20260507164508 8 225 0.0 0.0 0.00 1.80 0.00 56 1008.0
20260507163032 8 324 0.0 0.0 0.00 1.80 0.00 57 1008.4
20260507161526 8 244 0.0 0.0 0.00 1.80 0.00 58 1008.6
20260507160120 8 230 0.0 0.0 0.00 1.85 0.00 61 1008.6
20260507154558 8 188 0.0 0.0 0.00 1.85 0.00 59 1008.7
20260507153049 7 239 0.0 0.0 0.00 1.85 0.00 59 1009.0
20260507151559 7 309 0.0 0.0 0.00 1.85 0.00 59 1008.9
20260507150054 7 315 0.0 0.0 0.00 1.85 0.00 62 1008.7
20260507144530 7 319 0.0 0.0 0.00 1.85 0.00 66 1008.8
20260507143008 7 293 0.0 0.0 0.00 1.85 0.00 67 1008.8
20260507141633 6 242 0.0 0.0 0.00 1.85 0.00 70 1008.9
20260507140110 6 235 0.0 0.0 0.00 1.85 0.00 72 1008.7
20260507134538 6 277 0.0 0.0 0.00 1.85 0.00 74 1008.6
20260507133026 6 257 0.0 0.0 0.00 1.85 0.00 76 1008.6
20260507131502 6 259 0.0 0.0 0.00 1.85 0.00 77 1008.6
20260507130042 5 313 0.0 0.0 0.00 1.85 0.00 78 1008.6
20260507124535 5 196 0.0 0.0 0.00 1.85 0.00 80 1008.5
20260507123106 5 278 0.0 0.0 0.00 1.85 0.00 81 1008.5
20260507121512 5 275 0.0 0.0 0.00 1.85 0.00 81 1008.4
20260507114547 4 265 0.0 0.0 0.00 1.85 0.00 85 1008.1
20260507113008 4 244 0.0 0.0 0.00 1.85 0.00 87 1008.0
20260507111506 4 258 0.0 0.0 0.00 1.85 0.00 91 1008.2
20260507110106 4 315 0.0 0.0 0.00 1.85 0.00 93 1008.2
20260507104559 4 240 0.0 0.0 0.00 1.85 0.00 94 1008.1
20260507103039 4 182 0.0 0.0 0.00 1.85 0.00 95 1007.8
20260507101527 4 254 0.0 0.0 0.00 1.85 0.00 95 1007.5
20260507100104 4 305 0.0 0.0 0.00 1.85 0.00 95 1007.5
20260507094604 5 139 0.0 0.0 0.00 1.85 0.00 95 1007.6
20260507093100 5 233 0.0 0.0 0.00 1.85 0.00 95 1007.7
20260507091550 5 233 0.0 0.0 0.00 1.85 0.00 95 1007.6
20260507090010 5 233 0.0 0.0 0.00 1.85 0.00 95 1007.8
20260507084606 5 235 0.0 0.0 0.00 1.85 0.00 95 1008.0
20260507083106 5 148 0.0 0.0 0.00 1.85 0.00 96 1008.2
20260507081551 5 254 0.0 0.0 0.00 1.85 0.00 96 1008.1
20260507080052 5 240 0.0 0.0 0.00 1.85 0.00 96 1007.8
20260507074535 5 246 0.0 0.0 0.00 1.85 0.00 96 1007.6
20260507073136 5 242 0.0 0.0 0.00 1.85 0.00 97 1007.7
20260507071556 5 240 0.0 0.0 0.00 1.85 0.00 97 1007.5
20260507070110 5 219 0.0 0.0 0.00 1.85 0.00 97 1007.4
20260507064606 5 190 0.0 0.0 0.00 1.85 0.00 96 1007.6
20260507063059 5 190 0.0 0.0 0.00 1.85 0.00 96 1006.9
20260507061604 5 190 0.0 0.0 0.00 1.85 0.00 96 1007.2
20260507060045 5 190 0.0 0.0 0.00 1.85 0.00 96 1006.9
20260507054509 6 190 0.0 0.0 0.00 1.85 0.00 96 1007.5
20260507053057 5 194 0.0 0.0 0.00 1.85 0.00 96 1007.2
20260507051535 6 194 0.0 0.0 0.00 1.85 0.00 96 1007.6
20260507050111 6 194 0.0 0.0 0.00 1.85 0.00 96 1008.0
20260507044559 6 194 0.0 0.0 0.00 1.85 0.00 96 1007.7
20260507043037 6 42 0.0 0.0 0.00 1.85 0.00 96 1007.3
20260507041507 6 32 0.0 0.0 0.00 1.85 0.00 96 1007.2
20260507040112 6 30 0.0 0.0 0.00 1.85 0.00 96 1006.9
20260507034544 7 32 0.0 0.0 0.00 1.85 1.85 96 1007.2
20260507033044 7 32 0.0 0.0 0.00 1.85 1.85 96 1007.2
20260507031539 7 13 0.0 0.0 0.00 1.85 1.85 96 1007.1
20260507030034 7 11 0.0 0.0 0.00 1.85 1.85 96 1006.9
20260507024517 7 17 0.0 0.0 0.00 1.85 1.85 96 1007.0
20260507023059 7 188 0.0 0.0 0.00 1.85 1.85 96 1007.0
20260507021558 7 165 0.0 0.0 0.00 1.85 1.85 96 1006.7
20260507020044 7 159 0.0 0.0 0.00 1.85 1.85 96 1006.9
20260507014531 7 190 0.0 0.0 0.00 1.85 1.85 96 1007.0
20260507013137 7 190 0.0 0.0 0.00 1.85 1.85 95 1007.0
20260507011605 7 227 0.0 0.0 0.00 1.85 1.85 95 1006.7
20260507010040 8 254 0.0 0.0 0.00 1.85 1.85 95 1006.2
20260507004532 8 264 0.0 0.0 0.03 1.85 1.85 95 1006.2
20260507003005 8 245 0.0 0.0 0.03 1.85 1.85 95 1005.9
20260507001607 10 181 0.0 0.0 0.03 1.85 1.85 96 1005.3
20260507000101 10 270 0.0 0.0 0.03 1.85 1.85 96 1004.9
20260506234538 10 240 0.0 0.0 0.00 1.83 1.83 96 1004.5
20260506233026 11 325 0.0 0.0 0.10 1.83 1.83 96 1004.4
20260506231507 11 315 0.0 0.0 0.13 1.83 1.83 96 1004.0
20260506230025 12 313 0.0 0.0 0.13 1.83 1.83 97 1003.7
20260506224506 13 86 0.0 0.0 0.13 1.83 1.83 97 1003.3
20260506223021 13 86 0.0 0.0 0.00 1.70 1.70 96 1003.2
20260506221504 13 88 0.0 0.0 0.00 1.70 1.70 97 1003.0
20260506220003 13 92 0.0 0.0 0.00 1.70 1.70 97 1003.3
20260506214600 13 113 0.0 0.0 0.03 1.70 1.70 97 1003.1
20260506213036 13 323 0.0 0.0 0.05 1.70 1.70 97 1003.0
20260506211527 13 120 0.0 0.0 0.08 1.70 1.70 97 1003.1
20260506204600 13 47 0.0 0.0 0.25 1.68 1.68 97 1003.0
20260506203036 13 147 0.0 0.0 0.25 1.65 1.65 97 1003.0
20260506201533 13 331 0.0 0.0 0.25 1.63 1.63 97 1003.3
20260506200022 13 268 0.0 0.0 0.23 1.52 1.55 97 1003.4
20260506194623 13 34 0.0 0.0 0.18 1.42 1.42 97 1003.5
20260506193053 13 57 0.0 0.0 0.23 1.40 1.40 97 1003.7
20260506191549 13 36 0.0 0.0 0.33 1.37 1.37 97 1003.8
20260506190038 13 38 0.0 0.0 0.41 1.30 1.30 97 1004.0
20260506184555 13 136 0.0 0.0 0.58 1.24 1.24 97 1004.0
20260506183109 13 106 0.0 0.0 0.58 1.17 1.17 97 1004.0